Location: B?ogocice
(50.2413°N, 20.2361°E)
Time: 16:56:11
(UTC+00:00)

SAR-Lupe-4 - Pass Details

Date: 20 September 2024
Orbit: 476 x 483 km, 98.1° (Epoch: 03 October)

Event Time Altitude Azimuth Distance (km) Brightness Sun altitude
Rises 02:00:01 0° 19° (NNE) 2,555 8.0 -22.5°
Reaches altitude 10° 02:02:10 10° 26° (NNE) 1,668 7.1 -22.2°
Maximum altitude 02:05:36 44° 100° (E) 678 4.6 -21.7°
Enters shadow 02:06:51 31° 150° (SSE) 872 4.8 -21.5°
